Location: Enborne
(51.3833°N, 1.3667°W)
Time: 12:13:04
(UTC+00:00)

Tiangong - Visible Passes

Search period start: 26 January 2022 00:00
Search period end: 05 February 2022 00:00
Orbit: 382 x 386 km, 41.5° (Epoch: 26 January)

Date Brightness Start Highest point End Pass type
(mag) Time Alt. Az. Time Alt. Az. Time Alt. Az.
30 Jan 3.6 18:36:59 10° S 18:38:12 12° SSE 18:38:44 11° SSE visible
31 Jan 3.7 19:12:51 10° SSW 19:13:59 14° SSW 19:13:59 14° SSW visible
01 Feb 3.6 18:13:21 10° SSW 18:15:01 13° S 18:16:39 10° SE visible
02 Feb 3.5 18:49:40 10° SW 18:51:24 14° S 18:52:14 13° SSE visible
03 Feb 3.7 17:49:56 10° SSW 17:51:43 14° S 17:53:31 10° SE visible
03 Feb 4.1 19:27:12 10° SSW 19:27:29 10° SSW 19:27:29 10° SSW visible
04 Feb 3.8 18:26:38 10° SW 18:28:03 12° S 18:29:29 10° SSE visible
